Location: Brno
(49.2000°N, 16.6330°E)
Time: 23:59:43
(UTC+02:00)

BREEZE M DEB (TANK) - Visible Passes

Search period start: 21 August 2014 00:00
Search period end: 31 August 2014 00:00
Orbit: 303 x 12204 km, 49.5° (Epoch: 19 August)

Date Brightness Start Highest point End Pass type
(mag) Time Alt. Az. Time Alt. Az. Time Alt. Az.
21 Aug 3.5 05:18:19 10° SSW 05:20:59 21° SSE 05:22:49 10° ESE visible
22 Aug 3.9 04:50:16 10° SSW 04:52:53 17° SSE 04:54:40 10° ESE visible
23 Aug 4.3 04:22:53 12° S 04:24:44 15° SSE 04:26:26 10° ESE visible
24 Aug 4.6 03:55:59 12° SSE 03:56:31 13° SSE 03:58:02 10° SE visible
25 Aug 4.9 03:29:03 10° SE 03:29:03 10° SE 03:29:17 10° SE visible
30 Aug 2.0 05:09:35 13° SW 05:12:15 47° SSE 05:14:23 10° E visible
